• In Hungary
  • List of Countries
  • For 7 days
  • Water Temperature
  • Satellite Maps
  • Weather Map
  • News
  • Weather Widgets
  • user-avatar
    Login

    Hourly Weather Murfreesboro

    Today, 13 December, Wednesday

    Time Temperature Precipitation Wind Pressure Humidity
    00:00 -3°C° 0 mm 0 mps 748 mmHg 49%
    01:00 -3°C° 0 mm 0 mps 747 mmHg 48%
    02:00 -3°C° 0 mm 0 mps 747 mmHg 47%
    03:00 -2°C° 0 mm 1 mps 747 mmHg 46%
    04:00 -2°C° 0 mm 1 mps 747 mmHg 46%
    05:00 -2°C° 0 mm 1 mps 746 mmHg 47%
    06:00 -4°C° 0 mm 2 mps 746 mmHg 47%
    07:00 -2°C° 0 mm 3 mps 746 mmHg 43%
    08:00 -1°C° 0 mm 3 mps 746 mmHg 40%
    09:00 0°C° 0 mm 4 mps 745 mmHg 36%
    10:00 +2°C° 0 mm 5 mps 744 mmHg 35%
    11:00 +4°C° 0 mm 6 mps 743 mmHg 35%
    12:00 +5°C° 0 mm 7 mps 742 mmHg 34%
    13:00 +6°C° 0 mm 7 mps 741 mmHg 37%
    14:00 +6°C° 0 mm 7 mps 740 mmHg 40%
    15:00 +7°C° 0 mm 8 mps 740 mmHg 43%
    16:00 +6°C° 0 mm 7 mps 740 mmHg 48%
    17:00 +5°C° 0 mm 6 mps 740 mmHg 52%
    18:00 +5°C° 0 mm 5 mps 740 mmHg 57%
    19:00 +5°C° 0 mm 5 mps 740 mmHg 59%
    20:00 +5°C° 0 mm 5 mps 740 mmHg 61%
    21:00 +3°C° 0 mm 5 mps 740 mmHg 63%
    22:00 +4°C° 0 mm 4 mps 740 mmHg 65%
    23:00 +4°C° 0 mm 4 mps 741 mmHg 68%

    Tomorrow, 14 December, Thursday

    Time Temperature Precipitation Wind Pressure Humidity
    00:00 +3°C° 0 mm 4 mps 741 mmHg 70%
    01:00 +2°C° 0 mm 3 mps 741 mmHg 76%
    02:00 +1°C° 0 mm 3 mps 742 mmHg 81%
    03:00 +1°C° 0 mm 2 mps 742 mmHg 86%
    04:00 +1°C° 0 mm 2 mps 743 mmHg 87%
    05:00 -1°C° 0 mm 2 mps 743 mmHg 87%
    06:00 -2°C° 0 mm 2 mps 743 mmHg 88%
    07:00 -1°C° 0 mm 2 mps 744 mmHg 81%
    08:00 +1°C° 0 mm 2 mps 744 mmHg 74%
    09:00 +2°C° 0 mm 2 mps 745 mmHg 67%
    10:00 +3°C° 0 mm 2 mps 745 mmHg 62%
    11:00 +4°C° 0 mm 2 mps 745 mmHg 58%
    12:00 +5°C° 0 mm 2 mps 745 mmHg 53%
    13:00 +5°C° 0 mm 2 mps 745 mmHg 53%
    14:00 +5°C° 0 mm 2 mps 745 mmHg 53%
    15:00 +5°C° 0 mm 2 mps 745 mmHg 52%
    16:00 +4°C° 0 mm 2 mps 745 mmHg 58%
    17:00 +3°C° 0 mm 1 mps 746 mmHg 64%
    18:00 +2°C° 0 mm 1 mps 746 mmHg 69%
    19:00 +1°C° 0 mm 1 mps 746 mmHg 71%
    20:00 +1°C° 0 mm 1 mps 747 mmHg 73%
    21:00 0°C° 0 mm 1 mps 747 mmHg 74%
    22:00 0°C° 0 mm 1 mps 747 mmHg 75%
    23:00 0°C° 0 mm 1 mps 747 mmHg 76%

    Day after tomorrow, 15 December, Friday

    Time Temperature Precipitation Wind Pressure Humidity
    00:00 0°C° 0 mm 1 mps 747 mmHg 77%
    01:00 -1°C° 0 mm 1 mps 747 mmHg 77%
    02:00 -1°C° 0 mm 1 mps 747 mmHg 77%
    03:00 -1°C° 0 mm 1 mps 747 mmHg 78%
    04:00 -1°C° 0 mm 1 mps 747 mmHg 77%
    05:00 -1°C° 0 mm 1 mps 747 mmHg 77%
    06:00 -1°C° 0 mm 1 mps 747 mmHg 77%
    07:00 0°C° 0 mm 1 mps 748 mmHg 71%
    08:00 -1°C° 0 mm 2 mps 748 mmHg 65%
    09:00 +1°C° 0 mm 2 mps 749 mmHg 59%
    10:00 +2°C° 0 mm 2 mps 749 mmHg 54%
    11:00 +3°C° 0 mm 3 mps 749 mmHg 50%
    12:00 +4°C° 0 mm 3 mps 748 mmHg 46%
    13:00 +4°C° 0 mm 3 mps 748 mmHg 46%
    14:00 +4°C° 0 mm 3 mps 748 mmHg 46%
    15:00 +4°C° 0 mm 3 mps 748 mmHg 46%
    16:00 +3°C° 0 mm 3 mps 748 mmHg 53%
    17:00 +2°C° 0 mm 2 mps 748 mmHg 60%
    18:00 +2°C° 0 mm 1 mps 749 mmHg 66%
    19:00 -1°C° 0 mm 2 mps 749 mmHg 69%
    20:00 -1°C° 0 mm 2 mps 749 mmHg 72%
    21:00 -1°C° 0 mm 2 mps 750 mmHg 75%
    22:00 -1°C° 0 mm 2 mps 750 mmHg 76%
    23:00 -1°C° 0 mm 2 mps 750 mmHg 78%

    16 December, Saturday

    Time Temperature Precipitation Wind Pressure Humidity
    00:00 -1°C° 0 mm 2 mps 749 mmHg 80%
    01:00 -1°C° 0 mm 2 mps 749 mmHg 81%
    02:00 -1°C° 0 mm 2 mps 749 mmHg 83%
    03:00 -1°C° 0 mm 2 mps 749 mmHg 84%
    04:00 -2°C° 0 mm 2 mps 750 mmHg 86%
    05:00 -2°C° 0 mm 2 mps 750 mmHg 87%
    06:00 -2°C° 0 mm 2 mps 750 mmHg 88%
    07:00 0°C° 0 mm 3 mps 750 mmHg 81%
    08:00 +1°C° 0 mm 3 mps 750 mmHg 75%
    09:00 +3°C° 0 mm 3 mps 751 mmHg 68%
    10:00 +5°C° 0 mm 4 mps 750 mmHg 63%
    11:00 +7°C° 0 mm 4 mps 750 mmHg 58%
    12:00 +10°C° 0 mm 4 mps 750 mmHg 53%
    13:00 +10°C° 0 mm 4 mps 749 mmHg 55%
    14:00 +8°C° 0 mm 4 mps 749 mmHg 56%
    15:00 +8°C° 0 mm 4 mps 749 mmHg 57%
    16:00 +8°C° 0 mm 3 mps 749 mmHg 64%
    17:00 +5°C° 0 mm 3 mps 749 mmHg 71%
    18:00 +4°C° 0 mm 2 mps 750 mmHg 78%
    19:00 +4°C° 0 mm 2 mps 750 mmHg 80%
    20:00 +3°C° 0 mm 2 mps 750 mmHg 81%
    21:00 +3°C° 0 mm 2 mps 751 mmHg 82%
    22:00 +3°C° 0 mm 2 mps 751 mmHg 82%
    23:00 +3°C° 0 mm 2 mps 751 mmHg 82%

    17 December, Sunday

    Time Temperature Precipitation Wind Pressure Humidity
    00:00 +2°C° 0 mm 2 mps 751 mmHg 82%
    01:00 +3°C° 0 mm 2 mps 751 mmHg 80%
    02:00 +3°C° 0 mm 2 mps 751 mmHg 78%
    03:00 +3°C° 0 mm 2 mps 751 mmHg 77%
    04:00 +3°C° 0 mm 2 mps 750 mmHg 75%
    05:00 +3°C° 0 mm 2 mps 750 mmHg 73%
    06:00 +3°C° 0 mm 2 mps 749 mmHg 71%
    07:00 +4°C° 0.3 mm 2 mps 750 mmHg 71%
    08:00 +5°C° 0.3 mm 2 mps 751 mmHg 71%
    09:00 +6°C° 0.3 mm 1 mps 751 mmHg 71%
    10:00 +5°C° 3.4 mm 2 mps 751 mmHg 78%
    11:00 +4°C° 3.4 mm 3 mps 750 mmHg 84%
    12:00 +3°C° 3.4 mm 4 mps 750 mmHg 91%
    13:00 +4°C° 2 mm 4 mps 749 mmHg 90%
    14:00 +4°C° 2 mm 4 mps 748 mmHg 90%
    15:00 +5°C° 2 mm 4 mps 747 mmHg 89%
    16:00 +5°C° 0.1 mm 4 mps 747 mmHg 89%
    17:00 +7°C° 0.1 mm 3 mps 748 mmHg 88%
    18:00 +7°C° 0.1 mm 2 mps 748 mmHg 88%
    19:00 +7°C° 0 mm 2 mps 748 mmHg 89%
    20:00 +7°C° 0 mm 2 mps 748 mmHg 90%
    21:00 +9°C° 0 mm 1 mps 747 mmHg 90%
    22:00 +9°C° 0.1 mm 1 mps 747 mmHg 91%
    23:00 +9°C° 0.1 mm 1 mps 747 mmHg 92%

    18 December, Monday

    Time Temperature Precipitation Wind Pressure Humidity
    00:00 +9°C° 0.1 mm 1 mps 747 mmHg 92%
    01:00 +10°C° 0.1 mm 1 mps 747 mmHg 93%
    02:00 +10°C° 0.1 mm 1 mps 747 mmHg 94%
    03:00 +10°C° 0.1 mm 1 mps 747 mmHg 95%
    04:00 +10°C° 0 mm 1 mps 747 mmHg 96%
    05:00 +10°C° 0 mm 1 mps 747 mmHg 96%
    06:00 +10°C° 0 mm 1 mps 748 mmHg 96%
    07:00 +11°C° 0 mm 1 mps 748 mmHg 95%
    08:00 +12°C° 0 mm 1 mps 748 mmHg 95%
    09:00 +12°C° 0 mm 1 mps 748 mmHg 94%
    10:00 +14°C° 0 mm 1 mps 748 mmHg 91%
    11:00 +15°C° 0 mm 1 mps 747 mmHg 88%
    12:00 +16°C° 0 mm 1 mps 747 mmHg 85%
    13:00 +16°C° 0 mm 1 mps 747 mmHg 86%
    14:00 +16°C° 0 mm 1 mps 747 mmHg 86%
    15:00 +16°C° 0 mm 1 mps 746 mmHg 87%
    16:00 +15°C° 0 mm 1 mps 747 mmHg 89%
    17:00 +15°C° 0 mm 1 mps 747 mmHg 92%
    18:00 +13°C° 0 mm 0 mps 747 mmHg 94%
    19:00 +14°C° 0 mm 1 mps 747 mmHg 95%
    20:00 +14°C° 0 mm 1 mps 747 mmHg 95%
    21:00 +14°C° 0 mm 1 mps 747 mmHg 95%
    22:00 +14°C° 0 mm 1 mps 747 mmHg 95%
    23:00 +14°C° 0 mm 1 mps 746 mmHg 96%
    Show more